Sanford, NC

9:33 AM EDT on May 29, 2017 (GMT -0400)
Raleigh Executive Jetport

Weather History for KTTA - April, 2014

Change the Weather History Date:

Monday, April 14, 2014

  Actual Average (KHRJ) Record (KHRJ)
Temperature  
Mean Temperature 70 °F -  
Max Temperature 77 °F 72 °F 85 °F (1981)
Min Temperature 63 °F 46 °F 34 °F (1988)
Cooling Degree Days 5    
Growing Degree Days 20 (Base 50)    
Moisture  
Dew Point 59 °F    
Average Humidity 76    
Maximum Humidity 94    
Minimum Humidity 44    
Precipitation  
Precipitation 0.03 in - - ()
Sea Level Pressure  
Sea Level Pressure 30.01 in    
Wind  
Wind Speed 6 mph (South)    
Max Wind Speed 16 mph    
Max Gust Speed 22 mph    
Visibility 10 miles    
Events Rain    
Averages and records for this station are not official NWS values.
T = Trace of Precipitation, MM = Missing Value Source: NWS Daily Summary

Daily Weather History Graph

Daily Weather History Graph

Search for Another Location

Airport or City:

Trip Planner

Search our weather history database for the weather conditions in past years. The results will help you decide how hot, cold, wet, or windy it might be!

Date:

Astronomy

Apr. 14, 2014 Rise Set
Actual Time 6:45 AM EDT 7:48 PM EDT
Civil Twilight 6:18 AM EDT 8:14 PM EDT
Nautical Twilight 5:47 AM EDT 8:46 PM EDT
Astronomical Twilight 5:15 AM EDT 9:18 PM EDT
Moon 7:26 PM EDT (4/14) 6:14 AM EDT (4/14)
Length of Visible Light 13h 56m
Length of Day
13h 03m
Full, 100% of the Moon is Illuminated
Apr 14
Full
Apr 15
Full
Apr 22
Last Quarter
Apr 29
New
May 6
First Quarter

Hourly Weather History & Observations

Time (EDT) Temp. Dew Point Humidity Pressure Visibility Wind Dir Wind Speed Gust Speed Precip Events Conditions
12:15 AM 66.9 °F 54.5 °F 64% 30.11 in 10.0 mi South 6.9 mph - N/A   Unknown
12:35 AM 66.2 °F 54.9 °F 67% 30.11 in 10.0 mi South 5.8 mph - N/A   Unknown
12:55 AM 65.8 °F 55.4 °F 69% 30.11 in 10.0 mi South 5.8 mph - N/A   Unknown
1:15 AM 64.9 °F 55.4 °F 71% 30.11 in 10.0 mi SSE 5.8 mph - N/A   Unknown
1:35 AM 64.4 °F 55.4 °F 73% 30.11 in 10.0 mi SSE 3.5 mph - N/A   Unknown
1:55 AM 64.4 °F 55.9 °F 74% 30.10 in 10.0 mi South 4.6 mph - N/A   Unknown
2:15 AM 63.9 °F 56.3 °F 76% 30.09 in 10.0 mi SSE 4.6 mph - N/A   Unknown
2:35 AM 63.5 °F 56.7 °F 78% 30.09 in 10.0 mi South 3.5 mph - N/A   Unknown
2:55 AM 63.5 °F 57.2 °F 80% 30.08 in 10.0 mi South 4.6 mph - N/A   Unknown
3:15 AM 63.5 °F 57.6 °F 81% 30.08 in 10.0 mi SSE 4.6 mph - N/A   Unknown
3:35 AM 63.1 °F 58.1 °F 84% 30.07 in 10.0 mi SSE 4.6 mph - N/A   Unknown
3:55 AM 63.3 °F 58.6 °F 85% 30.07 in 10.0 mi South 5.8 mph - N/A   Unknown
4:15 AM 63.5 °F 59.0 °F 85% 30.07 in 10.0 mi SSE 6.9 mph - N/A   Unknown
4:35 AM 63.5 °F 59.2 °F 86% 30.06 in 10.0 mi South 6.9 mph - N/A   Unknown
4:55 AM 63.5 °F 59.4 °F 86% 30.06 in 10.0 mi South 5.8 mph - N/A   Unknown
5:15 AM 63.1 °F 59.4 °F 87% 30.06 in 10.0 mi South 4.6 mph - N/A   Unknown
5:35 AM 63.3 °F 59.7 °F 88% 30.06 in 10.0 mi South 5.8 mph - N/A   Unknown
5:55 AM 64.0 °F 59.5 °F 85% 30.06 in 10.0 mi South 6.9 mph - N/A   Unknown
6:15 AM 63.7 °F 59.2 °F 85% 30.06 in 10.0 mi South 8.1 mph - N/A   Unknown
6:35 AM 63.5 °F 59.0 °F 85% 30.06 in 10.0 mi SSE 5.8 mph - N/A   Unknown
6:55 AM 63.1 °F 58.8 °F 86% 30.06 in 10.0 mi South 5.8 mph - N/A   Unknown
7:15 AM 63.5 °F 59.0 °F 85% 30.06 in 10.0 mi SSE 6.9 mph - N/A   Unknown
7:35 AM 63.5 °F 59.0 °F 85% 30.06 in 10.0 mi South 5.8 mph - N/A   Unknown
7:55 AM 63.5 °F 58.8 °F 85% 30.05 in 10.0 mi SSE 4.6 mph - N/A   Unknown
8:15 AM 64.4 °F 59.0 °F 83% 30.05 in 10.0 mi SSE 5.8 mph - N/A   Unknown
8:35 AM 65.3 °F 59.0 °F 80% 30.06 in 10.0 mi South 6.9 mph - N/A   Unknown
8:55 AM 65.7 °F 58.8 °F 79% 30.06 in 10.0 mi South 8.1 mph - N/A   Unknown
9:15 AM 67.6 °F 59.2 °F 74% 30.06 in 10.0 mi SSE 6.9 mph - N/A   Unknown
9:35 AM 69.1 °F 59.2 °F 71% 30.06 in 10.0 mi SSE 9.2 mph - N/A   Unknown
9:55 AM 70.5 °F 59.2 °F 67% 30.06 in 10.0 mi South 9.2 mph - N/A   Unknown
10:15 AM 71.8 °F 58.5 °F 63% 30.05 in 10.0 mi SSE 11.5 mph 17.3 mph N/A   Unknown
10:35 AM 72.3 °F 57.7 °F 60% 30.06 in 10.0 mi South 10.4 mph - N/A   Unknown
10:55 AM 73.6 °F 57.4 °F 57% 30.05 in 10.0 mi SSE 15.0 mph 19.6 mph N/A   Unknown
11:15 AM 73.9 °F 56.7 °F 55% 30.06 in 10.0 mi South 12.7 mph - N/A   Unknown
11:35 AM 74.7 °F 57.2 °F 54% 30.06 in 10.0 mi SSW 10.4 mph 18.4 mph N/A   Unknown
11:55 AM 73.6 °F 57.2 °F 56% 30.05 in 10.0 mi South 10.4 mph 19.6 mph N/A   Unknown
12:15 PM 73.8 °F 57.0 °F 56% 30.04 in 10.0 mi SSW 8.1 mph - N/A   Unknown
12:35 PM 73.8 °F 57.2 °F 56% 30.04 in 10.0 mi SSW 6.9 mph - N/A   Unknown
12:55 PM 73.4 °F 57.9 °F 58% 30.04 in 10.0 mi SSW 6.9 mph - N/A   Unknown
1:15 PM 73.4 °F 57.9 °F 58% 30.03 in 10.0 mi SW 8.1 mph - N/A   Unknown
1:35 PM 73.4 °F 58.3 °F 59% 30.02 in 10.0 mi SSW 8.1 mph - N/A   Unknown
1:55 PM 73.9 °F 58.1 °F 58% 30.02 in 10.0 mi SSW 10.4 mph - N/A   Unknown
2:15 PM 75.4 °F 57.7 °F 54% 30.01 in 10.0 mi SW 11.5 mph - N/A   Unknown
2:35 PM 75.9 °F 57.7 °F 53% 30.00 in 10.0 mi SSW 9.2 mph - N/A   Unknown
2:55 PM 76.1 °F 56.7 °F 51% 29.99 in 10.0 mi SSW 8.1 mph - N/A   Unknown
3:15 PM 76.3 °F 54.0 °F 46% 29.97 in 10.0 mi SSW 8.1 mph - N/A   Unknown
3:35 PM 77.2 °F 54.0 °F 44% 29.96 in 10.0 mi South 9.2 mph - N/A   Unknown
3:55 PM 77.4 °F 54.7 °F 45% 29.96 in 10.0 mi SSW 8.1 mph 11.5 mph N/A   Unknown
4:15 PM 77.0 °F 54.7 °F 46% 29.94 in 10.0 mi SW 6.9 mph - N/A   Unknown
4:35 PM 76.1 °F 54.5 °F 47% 29.93 in 10.0 mi South 8.1 mph - N/A   Unknown
4:55 PM 73.2 °F 57.6 °F 58% 29.95 in 10.0 mi South 16.1 mph 21.9 mph N/A Rain Rain
5:15 PM 67.5 °F 64.8 °F 91% 29.95 in 7.0 mi SSE 9.2 mph - N/A   Drizzle
5:35 PM 66.9 °F 64.4 °F 92% 29.95 in 7.0 mi South 9.2 mph - 0.02 in Rain Light Rain
5:55 PM 67.1 °F 64.8 °F 92% 29.95 in 5.0 mi South 3.5 mph - 0.03 in Rain Rain
6:15 PM 67.1 °F 65.3 °F 94% 29.94 in 10.0 mi South 5.8 mph - N/A   Light Drizzle
6:35 PM 66.7 °F 64.9 °F 94% 29.93 in 10.0 mi SSE 4.6 mph - N/A   Unknown
6:55 PM 66.6 °F 64.4 °F 93% 29.92 in 10.0 mi SSE 4.6 mph - N/A   Unknown
7:15 PM 66.4 °F 64.2 °F 93% 29.91 in 10.0 mi SSE 3.5 mph - N/A   Unknown
7:35 PM 66.2 °F 64.0 °F 93% 29.90 in 10.0 mi ESE 3.5 mph - N/A   Unknown
7:55 PM 65.7 °F 63.5 °F 93% 29.89 in 10.0 mi SE 4.6 mph - N/A   Unknown
8:15 PM 65.5 °F 63.5 °F 93% 29.89 in 10.0 mi Calm Calm - N/A   Unknown
8:35 PM 65.3 °F 63.5 °F 94% 29.89 in 10.0 mi Calm Calm - N/A   Unknown
8:55 PM 64.4 °F 62.8 °F 94% 29.89 in 10.0 mi Calm Calm - N/A   Unknown
9:15 PM 64.8 °F 63.1 °F 94% 29.88 in 10.0 mi SE 3.5 mph - N/A   Unknown
9:55 PM 65.3 °F 63.5 °F 94% 29.89 in 10.0 mi SSE 4.6 mph - N/A   Unknown
10:15 PM 65.5 °F 63.5 °F 93% 29.89 in 10.0 mi SSE 3.5 mph - N/A   Unknown
10:35 PM 65.7 °F 63.7 °F 93% 29.88 in 10.0 mi SSE 3.5 mph - N/A   Unknown
10:55 PM 65.7 °F 63.7 °F 93% 29.87 in 10.0 mi SSE 4.6 mph - N/A   Unknown
11:15 PM 65.3 °F 63.7 °F 94% 29.86 in 10.0 mi SSE 4.6 mph - N/A   Unknown
11:35 PM 65.5 °F 63.7 °F 94% 29.86 in 10.0 mi SSE 3.5 mph - N/A   Unknown